Home > Weather > Fargo > Past weeks

Flag for USA Past Weather in Fargo, North Dakota, USA — Yesterday and Last 2 Weeks

Now
78 °F

Passing clouds.


Feels Like: 80 °F
Forecast: 62 / 81 °F
Wind: 21 mph from Northeast

Location: Hector International Airport

Current Time: Aug 29, 2016 at 12:39:46 AM

Latest Report: Aug 28, 2016 at 11:53 PM


Visibility: 10 mi

Pressure: 29.95 "Hg

Humidity: 79%

Dew Point: 71 °F

Location of FargoLocation

Past Weather in Fargo — Graph

°F

Fargo Temperature Yesterday

Maximum temperature yesterday: 88 °F (at 4:53 PM)
Minimum temperature yesterday: 61 °F (at 2:53 AM)
Average temperature yesterday: 75 °F

High & Low Weather Summary for the Past Weeks

 TemperatureHumidityPressure
High89 °F (Aug 23, 3:53 PM)93% (Aug 14, 6:53 AM)30.13 "Hg (Aug 14, 6:53 AM)
Low47 °F (Aug 21, 5:53 AM)38% (Aug 14, 3:53 PM)29.65 "Hg (Aug 23, 3:53 AM)
Average69 °F69%29.92 "Hg
* Reported Aug 13 10:53 PM — Aug 28 10:53 PM, Fargo, Weather by CustomWeather, © 2016

Note: Actual official high and low records may vary slightly from our data, if they occured in-between our weather recording intervals... More about our weather records

Advertising

Fargo Weather History for the Previous 24 Hours

Scroll right to see more
 ConditionsComfort  
Time TempWeatherWind HumidityBarometerVisibility
10:53 PM
Sun, Aug 28
80 °FPassing clouds.14 mph79%29.93 "Hg10 mi
9:53 PM82 °FPassing clouds.15 mph74%29.92 "Hg10 mi
8:53 PM83 °FPassing clouds.17 mph72%29.90 "Hg10 mi
7:53 PM85 °FMostly cloudy.15 mph68%29.90 "Hg10 mi
6:53 PM87 °FSunny.14 mph61%29.90 "Hg10 mi
5:53 PM88 °FSunny.17 mph57%29.90 "Hg10 mi
4:53 PM88 °FSunny.17 mph57%29.90 "Hg10 mi
3:53 PM87 °FSunny.18 mph55%29.91 "Hg10 mi
2:53 PM85 °FSunny.16 mph55%29.94 "Hg10 mi
1:53 PM83 °FSunny.12 mph57%29.95 "Hg10 mi
12:53 PM80 °FSunny.18 mph58%29.97 "Hg10 mi
11:53 AM77 °FSunny.15 mph62%29.98 "Hg10 mi
10:53 AM72 °FSunny.21 mph68%30.00 "Hg10 mi
9:53 AM71 °FPassing clouds.13 mph73%30.02 "Hg10 mi
8:53 AM68 °FSunny.14 mph78%30.01 "Hg10 mi
7:53 AM65 °FSunny.12 mph85%30.01 "Hg10 mi
6:53 AM63 °FClear.8 mph90%29.99 "Hg10 mi
5:53 AM63 °FClear.10 mph87%29.98 "Hg10 mi
4:53 AM62 °FClear.12 mph86%29.99 "Hg10 mi
3:53 AM62 °FClear.10 mph86%29.98 "Hg10 mi
2:53 AM61 °FClear.9 mph90%29.98 "Hg10 mi
1:53 AM62 °FPassing clouds.9 mph86%29.99 "Hg10 mi
12:53 AM64 °FClear.9 mph84%29.98 "Hg10 mi
Weather by CustomWeather, © 2016

See weather overviewHow to use our weather pages